Погода в Гвадалахаре

Мексика     20°37′53″N   103°20′47″W
темп.,
°C
ветер,
м/с
пор.,
м/с
влажн.,
%
обл.,
%
осадки,
мм/ч
давл.,
гПа
погр.,
м
21 января, чт
чт2100:00+17ссв006682 0.0 102043
03:00+14в127638 0.0 101940
06:00+13в008320 0.0 101929
09:00+17в00660 0.0 1020159
12:00+26юз13380 0.0 10181220
15:00+27зюз45270 0.0 10132377
18:00+25зюз472012 0.0 1014766
21:00+19з243788 0.0 1017100
22 января, пт
пт2200:00+16з126090 0.0 101852
03:00+14сз117278 0.0 101734
06:00+12с018139 0.0 101730
09:00+16вюв116588 0.0 1018123
12:00+26юз112691 0.0 1016909
15:00+29зюз241639 0.0 10122060
18:00+25з242160 0.0 1012289
21:00+18зюз13305 0.0 101686
23 января, сб
сб2300:00+16зсз114028 0.0 101743
03:00+13сз11561 0.0 101631
06:00+12в11640 0.0 101628
09:00+16в11510 0.0 1017134
12:00+27юз112626 0.0 1015830
15:00+29ююз131840 0.0 10112129
18:00+26зюз241930 0.0 1011442
21:00+19зюз13240 0.0 101471
24 января, вс
вс2400:00+16з114322 0.0 101543
03:00+14сз11584 0.0 101533
06:00+12ссв01702 0.0 101531
09:00+16юв115623 0.0 1016142
12:00+27юз132211 0.0 10141110
15:00+28зюз46120 0.0 10102960
18:00+25зюз37130 0.0 1010633
21:00+17з123017 0.0 101568
25 января, пн
пн2500:00+15з113953 0.0 101539
03:00+13зсз1149100 0.0 101535
06:00+11в005986 0.0 101531
09:00+15вюв114718 0.0 1016146
12:00+25ююз231915 0.0 10131288
15:00+27зюз46145 0.0 10092814
18:00+24юз471710 0.0 1010986
21:00+18юз26350 0.0 1014186